DW9498 Weather Reports


Display with metric or nautical units.
time (UTC)temp
F
wind
direction
speed
MPH
gust
MPH
rain 1hr
in
rain 24hr
in
rain mn
in
humidity
%
barometer
mb
20260903040345 85 176 1.0 3.0 0.00 0.06 0.06 59 1010.0
20260903035330 85 245 0.0 5.0 0.00 0.06 0.06 60 1009.9
20260903034334 84 176 1.0 3.0 0.00 0.06 0.06 60 1010.0
20260903033346 84 186 0.0 3.0 0.00 0.06 0.06 60 1010.0
20260903032353 85 142 0.0 3.0 0.00 0.06 0.06 60 1010.0
20260903031337 85 154 1.0 4.0 0.00 0.06 0.06 60 1010.0
20260903030325 85 174 0.0 2.0 0.00 0.06 0.06 60 1009.9
20260903025325 85 188 0.0 3.0 0.00 0.06 0.06 59 1010.0
20260903024343 85 116 0.0 4.0 0.00 0.06 0.06 59 1009.8
20260903023333 86 241 0.0 2.0 0.00 0.06 0.06 59 1009.8
20260903022331 86 216 0.0 2.0 0.00 0.06 0.06 58 1009.7
20260903021335 87 133 1.0 4.0 0.00 0.06 0.06 57 1009.6
20260903020324 87 159 0.0 1.0 0.00 0.06 0.06 57 1009.5
20260903015329 87 229 1.0 3.0 0.00 0.06 0.06 58 1009.3
20260903014340 88 143 0.0 1.0 0.00 0.06 0.06 58 1009.3
20260903013349 89 169 0.0 1.0 0.00 0.06 0.06 58 1009.3
20260903012331 89 181 0.0 2.0 0.00 0.06 0.06 57 1009.1
20260903011338 90 162 1.0 3.0 0.00 0.06 0.06 56 1009.1
20260903010330 90 165 0.0 2.0 0.00 0.06 0.06 55 1009.1
20260903005341 91 213 0.0 2.0 0.00 0.06 0.06 54 1009.1
20260903004330 92 105 0.0 3.0 0.00 0.06 0.06 53 1009.1
20260903003343 93 259 0.0 2.0 0.00 0.06 0.06 52 1009.2
20260903002331 94 187 0.0 3.0 0.00 0.06 0.06 51 1009.2
20260903001337 95 165 0.0 3.0 0.00 0.06 0.06 49 1009.2
20260903000328 96 157 0.0 4.0 0.00 0.06 0.06 48 1009.2
20260902235333 97 163 1.0 3.0 0.00 0.06 0.06 47 1009.2
20260902234338 98 157 1.0 3.0 0.00 0.06 0.06 47 1009.3
20260902233349 98 146 2.0 5.0 0.00 0.06 0.06 46 1009.4
20260902232332 98 148 1.0 5.0 0.00 0.06 0.06 46 1009.3
20260902231404 98 216 2.0 6.0 0.00 0.06 0.06 44 1009.2
20260902230352 98 158 3.0 6.0 0.00 0.06 0.06 44 1009.3
20260902225334 98 156 3.0 8.0 0.00 0.06 0.06 44 1009.3
20260902224343 98 164 3.0 7.0 0.00 0.06 0.06 44 1009.4
20260902223332 98 206 3.0 7.0 0.00 0.06 0.06 43 1009.4
20260902222325 98 185 3.0 8.0 0.00 0.06 0.06 45 1009.5
20260902221359 98 165 3.0 10.0 0.00 0.06 0.06 47 1009.5
20260902220404 98 164 2.0 9.0 0.00 0.06 0.06 47 1009.5
20260902215328 98 163 4.0 8.0 0.00 0.06 0.06 45 1009.5
20260902214333 98 159 2.0 12.0 0.00 0.06 0.06 45 1009.6
20260902213344 98 154 2.0 8.0 0.00 0.06 0.06 45 1009.6
20260902212351 99 168 3.0 10.0 0.00 0.06 0.06 44 1009.7
20260902211326 99 145 3.0 8.0 0.00 0.06 0.06 44 1009.7
20260902210335 98 211 2.0 7.0 0.00 0.06 0.06 45 1009.8
20260902205328 98 192 5.0 10.0 0.00 0.06 0.06 44 1009.9
20260902204331 98 126 3.0 12.0 0.00 0.06 0.06 44 1009.9
20260902203337 98 203 4.0 10.0 0.00 0.06 0.06 45 1010.0
20260902202341 97 203 1.0 6.0 0.00 0.06 0.06 47 1010.0
20260902201326 96 149 3.0 10.0 0.00 0.06 0.06 46 1010.2
20260902200334 97 160 4.0 7.0 0.00 0.06 0.06 47 1010.2
20260902195347 96 296 4.0 7.0 0.00 0.06 0.06 46 1010.3
20260902194400 96 240 5.0 7.0 0.00 0.06 0.06 45 1010.3
20260902193327 95 119 2.0 8.0 0.00 0.06 0.06 49 1010.5
20260902192354 94 165 2.0 6.0 0.00 0.06 0.06 49 1010.6
20260902191335 94 143 2.0 4.0 0.00 0.06 0.06 52 1010.5
20260902190345 94 149 2.0 4.0 0.00 0.06 0.06 49 1010.7
20260902185336 94 232 1.0 8.0 0.00 0.06 0.06 50 1010.8
20260902184341 92 289 2.0 7.0 0.00 0.06 0.06 50 1010.9
20260902183333 92 223 3.0 7.0 0.00 0.06 0.06 50 1011.0
20260902182327 92 183 2.0 8.0 0.00 0.06 0.06 51 1011.1
20260902181330 92 82 4.0 8.0 0.00 0.06 0.06 49 1011.1
20260902180336 91 150 4.0 9.0 0.00 0.06 0.06 51 1011.3
20260902175330 90 45 0.0 7.0 0.00 0.06 0.06 55 1011.4
20260902174359 89 147 2.0 8.0 0.00 0.06 0.06 53 1011.5
20260902173331 89 140 2.0 8.0 0.00 0.06 0.06 53 1011.6
20260902172327 90 181 2.0 8.0 0.00 0.06 0.06 52 1011.8
20260902171348 90 296 2.0 7.0 0.00 0.06 0.06 52 1011.8
20260902170332 89 218 3.0 8.0 0.00 0.06 0.06 52 1011.8
20260902165342 88 261 2.0 7.0 0.00 0.06 0.06 55 1011.8
20260902164354 88 170 2.0 8.0 0.00 0.06 0.06 54 1011.8
20260902163324 88 145 4.0 8.0 0.00 0.06 0.06 54 1011.7
20260902162338 88 162 2.0 9.0 0.00 0.06 0.06 55 1011.8
20260902161336 87 140 1.0 6.0 0.00 0.06 0.06 54 1011.7
20260902160327 87 155 2.0 5.0 0.00 0.06 0.06 55 1011.8
20260902155358 86 145 3.0 7.0 0.00 0.06 0.06 56 1011.7
20260902154343 84 192 1.0 5.0 0.00 0.06 0.06 63 1011.8
20260902153333 82 163 0.0 3.0 0.00 0.06 0.06 66 1011.7
20260902152330 82 168 0.0 3.0 0.00 0.06 0.06 68 1011.8
20260902151338 81 254 0.0 1.0 0.00 0.06 0.06 70 1011.8
20260902150348 80 183 1.0 2.0 0.01 0.06 0.06 71 1011.9
20260902145349 77 168 0.0 0.0 0.06 0.06 0.06 77 1011.7
20260902144347 76 223 0.0 0.0 0.06 0.06 0.06 78 1011.7
20260902143325 75 246 0.0 0.0 0.06 0.06 0.06 78 1011.8
20260902142337 75 240 0.0 0.0 0.06 0.06 0.06 77 1011.8
20260902141400 76 165 0.0 0.0 0.06 0.06 0.06 74 1011.5
20260902140327 78 171 0.0 2.0 0.03 0.03 0.03 70 1012.2
20260902135401 79 157 0.0 1.0 0.00 0.00 0.00 67 1012.1
20260902134330 79 199 0.0 2.0 0.00 0.00 0.00 66 1011.9
20260902133412 79 152 0.0 1.0 0.00 0.00 0.00 67 1012.1
20260902132333 78 178 0.0 2.0 0.00 0.00 0.00 68 1012.2
20260902131337 76 243 0.0 0.0 0.00 0.00 0.00 70 1012.2
20260902130347 75 289 0.0 0.0 0.00 0.00 0.00 72 1012.3
20260902125332 75 289 0.0 0.0 0.00 0.00 0.00 73 1012.3
20260902124341 74 289 0.0 0.0 0.00 0.00 0.00 72 1012.2
20260902123334 74 289 0.0 0.0 0.00 0.00 0.00 73 1012.1
20260902122331 73 289 0.0 0.0 0.00 0.00 0.00 73 1012.2
20260902121338 73 289 0.0 0.0 0.00 0.00 0.00 73 1012.0
20260902120347 73 289 0.0 0.0 0.00 0.00 0.00 73 1011.8
20260902115325 73 289 0.0 0.0 0.00 0.00 0.00 73 1011.8
20260902114333 73 289 0.0 0.0 0.00 0.00 0.00 72 1011.8
20260902113342 73 289 0.0 0.0 0.00 0.00 0.00 72 1011.8
20260902112328 73 289 0.0 0.0 0.00 0.00 0.00 72 1011.8
20260902111335 73 288 0.0 0.0 0.00 0.00 0.00 72 1011.8
20260902110346 74 288 0.0 0.0 0.00 0.00 0.00 72 1011.8
20260902105353 74 288 0.0 0.0 0.00 0.00 0.00 71 1011.7
20260902104339 74 288 0.0 0.0 0.00 0.00 0.00 70 1011.6
20260902103329 75 288 0.0 0.0 0.00 0.00 0.00 69 1011.8
20260902102339 75 288 0.0 0.0 0.00 0.00 0.00 69 1011.8
20260902101341 75 288 0.0 0.0 0.00 0.00 0.00 68 1012.0
20260902100329 76 288 0.0 0.0 0.00 0.00 0.00 67 1012.0
20260902095341 76 288 0.0 0.0 0.00 0.00 0.00 67 1012.0
20260902094359 77 288 0.0 0.0 0.00 0.00 0.00 65 1012.1
20260902093349 77 309 0.0 0.0 0.00 0.00 0.00 67 1012.2
20260902092334 77 327 0.0 0.0 0.00 0.00 0.00 66 1012.1
20260902091335 78 327 0.0 0.0 0.00 0.00 0.00 64 1012.2
20260902090325 78 327 0.0 4.0 0.00 0.00 0.00 64 1012.2
20260902085335 78 236 0.0 3.0 0.00 0.00 0.00 63 1012.0
20260902084359 78 251 1.0 3.0 0.00 0.00 0.00 65 1012.1
20260902083331 78 2 0.0 4.0 0.00 0.00 0.00 66 1012.3
20260902082344 78 5 1.0 3.0 0.00 0.00 0.00 66 1012.2
20260902081325 77 8 2.0 4.0 0.00 0.00 0.00 67 1012.3
20260902080334 76 157 0.0 0.0 0.00 0.00 0.00 68 1011.9
20260902075324 76 157 0.0 0.0 0.00 0.00 0.00 67 1011.5
20260902074328 77 157 0.0 0.0 0.00 0.00 0.00 65 1011.5
20260902073335 78 157 0.0 1.0 0.00 0.00 0.00 64 1011.4
20260902072323 78 133 0.0 2.0 0.00 0.00 0.00 64 1011.4
20260902071324 77 148 0.0 0.0 0.00 0.00 0.00 65 1011.4
20260902070333 78 148 0.0 0.0 0.00 0.00 0.00 65 1011.4
20260902065327 79 148 0.0 0.0 0.00 0.00 0.00 63 1011.4
20260902064333 80 220 0.0 1.0 0.00 0.00 0.00 62 1011.4
20260902063324 80 152 0.0 2.0 0.00 0.00 0.00 61 1011.4
20260902062337 80 138 1.0 4.0 0.00 0.00 0.00 60 1011.2
20260902061354 81 173 1.0 4.0 0.00 0.00 0.00 60 1011.1
20260902060344 81 230 1.0 3.0 0.00 0.00 0.00 60 1011.0
20260902055328 81 115 1.0 3.0 0.00 0.00 0.00 60 1011.0
20260902054352 82 202 0.0 3.0 0.00 0.00 0.00 59 1011.0
20260902053337 82 166 0.0 5.0 0.00 0.00 0.00 59 1011.0
20260902052326 82 160 1.0 3.0 0.00 0.00 0.00 58 1011.0
20260902051349 83 187 1.0 3.0 0.00 0.00 0.00 58 1011.1
20260902050337 83 240 1.0 4.0 0.00 0.00 0.00 57 1011.1
20260902045331 83 162 1.0 3.0 0.00 0.00 0.00 57 1011.1
20260902044339 84 221 0.0 5.0 0.00 0.00 0.00 57 1011.2
20260902043345 84 249 0.0 3.0 0.00 0.00 0.00 57 1011.2
20260902042336 84 200 2.0 6.0 0.00 0.00 0.00 58 1011.1
20260902041340 83 121 1.0 4.0 0.00 0.00 0.00 59 1011.2